All
Baia Mare Airport (Baia Mare) BAY Weather
|
Baia Mare (BAY / LRBM)
Clear skies
Windy |
|
80 °F |
BAY Terminal Area Forecast
| Date | Time (EEST) | Flight Rules | Wind Dir. | Speed | Type | Height AGL (ft) | Visibility | Remarks | ||||||
|---|---|---|---|---|---|---|---|---|---|---|---|---|---|---|
Recent BAY METAR history
| Date | Time (EEST) | Flight Rules | Wind Dir. | Speed | Type | Height AGL (ft) | Visibility | Temp (°C) | Temp (°F) | Dew Point (°C) | Dew Point (°F) | Rel. Humid. | Pressure | Density Altitude | Remarks |
|---|---|---|---|---|---|---|---|---|---|---|---|---|---|---|---|
| 05-Sep | 01:00PM | VFR | 280° | 11 kt | 10000 meters | 27° | 80° | 13° | 55° | 42% | 1015 mb | 1,991 ft | |||
| 05-Sep | 12:30PM | VFR | Variable | 2 kt | 10000 meters | 28° | 82° | 13° | 55° | 40% | 1015 mb | 2,111 ft | |||
| 05-Sep | 12:00PM | VFR | Variable | 2 kt | 10000 meters | 27° | 80° | 13° | 55° | 42% | 1015 mb | 1,991 ft | |||
| 05-Sep | 11:30AM | VFR | Variable | 3 kt | 10000 meters | 27° | 80° | 13° | 55° | 42% | 1015 mb | 1,991 ft | |||
| 05-Sep | 11:00AM | VFR | Variable | 3 kt | 10000 meters | 27° | 80° | 13° | 55° | 42% | 1015 mb | 1,991 ft | |||
| 05-Sep | 10:30AM | VFR | 120° | 6 kt | 10000 meters | 26° | 78° | 12° | 53° | 42% | 1015 mb | 1,871 ft | |||
| 05-Sep | 10:00AM | VFR | 110° | 6 kt | 10000 meters | 25° | 77° | 14° | 57° | 50% | 1015 mb | 1,751 ft | |||
| 05-Sep | 09:30AM | VFR | 100° | 8 kt | 10000 meters | 23° | 73° | 13° | 55° | 53% | 1015 mb | 1,511 ft | |||
| 05-Sep | 09:00AM | VFR | 80° | 6 kt | 10000 meters | 22° | 71° | 13° | 55° | 57% | 1015 mb | 1,391 ft | |||
| 05-Sep | 08:30AM | VFR | 80° | 5 kt | 10000 meters | 21° | 69° | 13° | 55° | 60% | 1015 mb | 1,271 ft | |||
| 05-Sep | 08:00AM | VFR | 80° | 5 kt | 10000 meters | 19° | 66° | 12° | 53° | 64% | 1015 mb | 1,031 ft | |||
| 05-Sep | 07:30AM | VFR | 70° | 6 kt | 10000 meters | 17° | 62° | 12° | 53° | 72% | 1015 mb | 791 ft | |||
| 05-Sep | 07:00AM | VFR | 80° | 7 kt | 10000 meters | 17° | 62° | 12° | 53° | 72% | 1015 mb | 791 ft | |||
| 05-Sep | 06:30AM | VFR | 80° | 7 kt | 10000 meters | 17° | 62° | 12° | 53° | 72% | 1015 mb | 791 ft | |||
| 05-Sep | 06:00AM | VFR | 90° | 7 kt | 10000 meters | 17° | 62° | 12° | 53° | 72% | 1015 mb | 791 ft | |||
| 05-Sep | 05:30AM | VFR | 90° | 8 kt | 10000 meters | 16° | 60° | 12° | 53° | 77% | 1015 mb | 671 ft | |||
| 05-Sep | 05:00AM | VFR | 80° | 8 kt | 10000 meters | 17° | 62° | 12° | 53° | 72% | 1015 mb | 791 ft | |||
| 05-Sep | 04:30AM | VFR | 80° | 5 kt | 10000 meters | 17° | 62° | 12° | 53° | 72% | 1015 mb | 791 ft | |||
| 05-Sep | 04:00AM | VFR | Variable | 2 kt | 10000 meters | 17° | 62° | 12° | 53° | 72% | 1015 mb | 791 ft | |||
| 05-Sep | 03:30AM | VFR | Variable | 2 kt | 10000 meters | 16° | 60° | 12° | 53° | 77% | 1015 mb | 671 ft | |||
| 05-Sep | 03:00AM | VFR | Variable | 2 kt | 10000 meters | 17° | 62° | 12° | 53° | 72% | 1016 mb | 762 ft | |||
| 05-Sep | 02:30AM | VFR | Calm | 10000 meters | 17° | 62° | 12° | 53° | 72% | 1016 mb | 762 ft | ||||
| 05-Sep | 02:00AM | VFR | Variable | 2 kt | 10000 meters | 17° | 62° | 12° | 53° | 72% | 1016 mb | 762 ft | |||
| 05-Sep | 01:30AM | VFR | Variable | 2 kt | 10000 meters | 18° | 64° | 12° | 53° | 68% | 1016 mb | 882 ft |
Login
| Your browser is unsupported. upgrade your browser |
